"Pseudo-MPEC" for P20IkCV

Created 2018 Jul 12 14:18:32 UT using Find_Orb

Click here for an explanation of pseudo-MPECs

 
 Astrometry: 
     P20IkCV  C2018 07 10#gAstrometry7b$C5A*20`?Vbf:s-,8yk!B_4)bAddE)a4$kG4K-F52
     P20IkCV  C2018 07 10T[I@Pv'64(jHgXR*ZMnxrQ9,V+-D0:xlcrv:T2(Z:r]\Qifep4h@F52
     P20IkCV  C2018 07 10WNP6tMPMsnyo.S'6hvc%2nHRYfQ`,/h6K$1RU^K#7tek!YR8d2`lF52
     P20IkCV  C2018 07 10$\wdC,RY2Wjf(jC@dredacted;.e@cDL(\6:BR`i^d2Dpk0'6OGsF52
     P20IkCV KC2018 07 11j87R#X!^x]u8Y'S3pkQ(iN)d)+\Ou9(xKx0v7+hKfA8]fj?Vlm0O734
     P20IkCV KC2018 07 11W9Z:;0i.lgZDAj@3Ob8o^PRJ@rZ2?jw)vkx`Z-,!gPw1J0:3H/qx734
     P20IkCV KC2018 07 11Ash_-F!*PRON8c[yeO3TL'gN7^-Yyu59see(\:g2l:_ZP^ERg;@A734
     P20IkCV KC2018 07 12gGbo8FOEZO@oB#Q6j=]`XB@bZ?:!ZZw!\_pt`Ft@On5qqAaa^DHp734
     P20IkCV KC2018 07 12fhXbMB-SDC8nxnlrC`.nX)V?AA8AdJuLwQn_*l(wauUlnS-V!e_1734
     P20IkCV KC2018 07 12*Z2r-jw(N4dgWJ;r$k'K94XI6CbG'B3-otwlWmtkXb/i2%;NEOCP734

Station data:
(734) Farpoint Observatory, Eskridge  (N38.890107 W96.001400)  US/Kansas.
   Observer G. Hug. .3 meter s-c + CCD.
(F52) Pan-STARRS 2, Haleakala  (N20.707384 W156.255910)  US/Hawaii.

Orbital elements:  P20IkCV
   Perihelion 2018 Sep 9.766576 +/- 5.51 TT = 18:23:52 (JD 2458371.266576)
Epoch 2018 Jul 12.0 TT = JDT 2458311.5   Earth MOID: 0.3185   Ma: 0.0132
M 343.40537 +/- 1.3                 (J2000 ecliptic)          AutoNEOCP
n   0.27765732 +/- 0.00624          Peri.  148.17373 +/- 9
a   2.32700129 +/- 0.0366           Node   188.86356 +/- 4.0
e   0.4312867 +/- 0.0183            Incl.    5.10688 +/- 0.09
P   3.55                   H 21.3   G  0.15   U  9.3  
q 1.32339635 +/- 0.0318    Q 3.33060622 +/- 0.0905
From 10 observations 2018 July 10-12 (42.6 hr); mean residual 0".15
Residuals in arcseconds: 
180710 F52  .07+  .03+    180711 734  .38-  .04+    180712 734  .02-  .07-    
180710 F52  .00   .01-    180711 734  .08+  .02-    180712 734  .23+  .00     
180710 F52  .08-  .04-    180711 734  .40+  .05-    
180710 F52  .03-  .02+    180712 734  .27-  .06+    

Ephemerides (geocentric):
Date (UTC) HH   RA              Dec         delta   r     elong  mag " sig PA
---- -- -- --  -------------   -----------  ------ ------ -----  --- ---- ---
2018 07 12 14  20 07 16.578   -03 40 41.35  .44506 1.4413 159.2 21.1  .18  29
2018 07 12 15  20 07 16.787   -03 40 27.49  .44486 1.4412 159.2 21.1  .18  28
2018 07 12 16  20 07 16.993   -03 40 13.66  .44467 1.4410 159.2 21.1  .19  27
2018 07 12 17  20 07 17.198   -03 39 59.87  .44447 1.4409 159.2 21.1  .19  26
2018 07 12 18  20 07 17.402   -03 39 46.11  .44427 1.4407 159.3 21.1  .20  25
2018 07 12 19  20 07 17.604   -03 39 32.39  .44407 1.4406 159.3 21.1  .20  24
2018 07 12 20  20 07 17.805   -03 39 18.70  .44387 1.4404 159.3 21.1  .21  23
2018 07 12 21  20 07 18.004   -03 39 05.05  .44367 1.4403 159.3 21.1  .21  22
2018 07 12 22  20 07 18.202   -03 38 51.44  .44348 1.4401 159.4 21.1  .22  21
2018 07 12 23  20 07 18.399   -03 38 37.86  .44328 1.4399 159.4 21.1  .22  20
2018 07 13 00  20 07 18.594   -03 38 24.31  .44308 1.4398 159.4 21.1  .23  19
2018 07 13 01  20 07 18.787   -03 38 10.80  .44288 1.4396 159.4 21.1  .23  18
2018 07 13 02  20 07 18.979   -03 37 57.33  .44269 1.4395 159.4 21.1  .24  17
2018 07 13 03  20 07 19.170   -03 37 43.89  .44249 1.4393 159.5 21.1  .24  16
2018 07 13 04  20 07 19.359   -03 37 30.49  .44229 1.4392 159.5 21.1  .25  16
2018 07 13 05  20 07 19.547   -03 37 17.12  .44210 1.4390 159.5 21.1  .25  15
2018 07 13 06  20 07 19.734   -03 37 03.79  .44190 1.4389 159.5 21.1  .26  14
2018 07 13 07  20 07 19.919   -03 36 50.50  .44171 1.4387 159.5 21.1  .27  13
2018 07 13 08  20 07 20.102   -03 36 37.24  .44151 1.4386 159.6 21.1  .27  12
2018 07 13 09  20 07 20.284   -03 36 24.02  .44132 1.4384 159.6 21.1  .28  12
2018 07 13 10  20 07 20.465   -03 36 10.83  .44112 1.4383 159.6 21.1  .29  11
2018 07 13 11  20 07 20.645   -03 35 57.68  .44093 1.4381 159.6 21.1  .29  10
2018 07 13 12  20 07 20.823   -03 35 44.56  .44073 1.4380 159.6 21.1  .30   9
2018 07 13 13  20 07 21.000   -03 35 31.48  .44054 1.4378 159.7 21.1  .31   9
2018 07 13 14  20 07 21.175   -03 35 18.44  .44034 1.4377 159.7 21.1  .31   8
2018 07 13 15  20 07 21.349   -03 35 05.43  .44015 1.4375 159.7 21.1  .32   7
2018 07 13 16  20 07 21.522   -03 34 52.46  .43996 1.4374 159.7 21.1  .33   7
2018 07 13 17  20 07 21.693   -03 34 39.53  .43976 1.4372 159.7 21.1  .34   6
2018 07 13 18  20 07 21.863   -03 34 26.63  .43957 1.4370 159.8 21.1  .34   6
2018 07 13 19  20 07 22.032   -03 34 13.77  .43938 1.4369 159.8 21.1  .35   5
2018 07 13 20  20 07 22.199   -03 34 00.94  .43918 1.4367 159.8 21.1  .36   4
2018 07 13 21  20 07 22.365   -03 33 48.15  .43899 1.4366 159.8 21.1  .37   4
2018 07 13 22  20 07 22.530   -03 33 35.40  .43880 1.4364 159.8 21.1  .38   3
2018 07 13 23  20 07 22.693   -03 33 22.69  .43861 1.4363 159.9 21.1  .38   3
2018 07 14 00  20 07 22.855   -03 33 10.01  .43841 1.4361 159.9 21.1  .39   2
2018 07 14 01  20 07 23.016   -03 32 57.36  .43822 1.4360 159.9 21.1  .40   2
2018 07 14 02  20 07 23.176   -03 32 44.76  .43803 1.4358 159.9 21.1  .41   1
2018 07 14 03  20 07 23.334   -03 32 32.19  .43784 1.4357 159.9 21.1  .42   1
2018 07 14 04  20 07 23.491   -03 32 19.65  .43765 1.4355 160.0 21.1  .43   0
2018 07 14 05  20 07 23.647   -03 32 07.16  .43746 1.4354 160.0 21.1  .44   0
2018 07 14 06  20 07 23.801   -03 31 54.70  .43727 1.4352 160.0 21.1  .45 179
2018 07 14 07  20 07 23.954   -03 31 42.28  .43708 1.4351 160.0 21.1  .46 179
2018 07 14 08  20 07 24.106   -03 31 29.89  .43689 1.4349 160.0 21.1  .46 179
2018 07 14 09  20 07 24.257   -03 31 17.54  .43670 1.4348 160.0 21.1  .47 178
2018 07 14 10  20 07 24.406   -03 31 05.23  .43651 1.4346 160.1 21.1  .48 178
2018 07 14 11  20 07 24.555   -03 30 52.96  .43632 1.4345 160.1 21.1  .49 177
2018 07 14 12  20 07 24.702   -03 30 40.72  .43613 1.4343 160.1 21.1  .50 177
2018 07 14 13  20 07 24.847   -03 30 28.52  .43594 1.4342 160.1 21.1  .51 177